Regional Weather Roundup
Issued by NWS

Home | Current Version | Previous Version | Text Only | Print | Product List | Glossary Off
Versions: 1 2 3 4 5 6 7 8 9 10 11 12 13 14 15 16 17 18 19 20 21 22 23 24 25 26 27 28 29 30 31 32 33 34 35 36 37 38 39 40 41 42 43 44 45 46 47 48 49 50

000
ASUS43 KMPX 010910
RWRMN
WEATHER ROUNDUP FOR MINNESOTA
NATIONAL WEATHER SERVICE TWIN CITIES/CHANHASSEN MN
400 AM CDT SAT NOV 01 2014


NOTE: "FAIR" INDICATES FEW OR NO CLOUDS BELOW 12,000 FEET WITH NO
SIGNIFICANT WEATHER AND/OR OBSTRUCTIONS TO VISIBILITY. N/A MEANS
CURRENT SKY AND/OR WEATHER CONDITIONS ARE NOT AVAILABLE.

MNZ060>063-068>070-011000-
   Twin Cities Metro

CITY           SKY/WX    TMP DP  RH WIND       PRES   REMARKS
TWIN CITIES    CLEAR     24  17  74 SE6       30.46F WCI  17
ST PAUL        CLEAR     24  21  88 S5        30.48S WCI  18
CRYSTAL        CLEAR     20  15  81 CALM      30.45S
BLAINE         CLEAR     21  21 100 CALM      30.45S
LAKEVILLE      CLEAR     16  12  86 CALM      30.45F
EDEN PRAIRIE   CLEAR     23  18  81 SE7       30.44F WCI  15
SOUTH ST PAUL  CLEAR     23  19  83 CALM      30.47S
LAKE ELMO      FAIR      19  18  93 CALM      30.47F
$$
MNZ001>005-007-008-013>017-022>024-027-028-011000-
   Northwest Minnesota

CITY           SKY/WX    TMP DP  RH WIND       PRES   REMARKS
BEMIDJI        PTCLDY    29  17  61 S9G16     30.32S WCI  20
HALLOCK        CLOUDY    34  19  55 S21G26    30.21F WCI  22
ROSEAU         CLOUDY    32  21  64 S13       30.26F WCI  22
WARROAD        CLOUDY    32  19  59 S8        30.28F WCI  25
THIEF RVR FALL CLOUDY    30  21  69 S13       30.26F WCI  20
CROOKSTON      CLOUDY    34  19  55 S23       30.26F WCI  22
FOSSTON        PTCLDY    28  18  64 S13       30.29F WCI  18
DETROIT LAKES  PTCLDY    32  21  64 S15G22    30.31F WCI  22
MOORHEAD       CLOUDY    32  19  59 S21G26    30.29F WCI  20
PARK RAPIDS    PTCLDY    25  16  68 S8        30.34F WCI  16
MAHNOMEN       FAIR      30  20  65 S12G17    30.29F WCI  20
$$
MNZ006-009>011-018-025>026-011000-
   North Central Minnesota

CITY           SKY/WX    TMP DP  RH WIND       PRES   REMARKS
BAUDETTE       CLOUDY    28  19  69 S7        30.30F WCI  21
FLAG ISLAND    CLOUDY    36  25  64 S24G31    30.26F
INTL FALLS     PTCLDY    20  14  77 SE5       30.35F WCI  13
WASKISH        CLOUDY    27  19  74 CALM      30.32F
BIG FORK       CLEAR     23  18  80 S5        30.36F WCI  17
LONGVILLE      PTCLDY    23  18  80 SE3       30.37F
GRAND RAPIDS   CLEAR     21  12  68 S5        30.37F WCI  15
CRANE LAKE     CLEAR     14  12  92 CALM      30.41F
ORR            CLEAR     21  14  73 CALM      30.35F
COOK           CLEAR     16  12  86 CALM      30.39S
WALKER         FAIR      28  15  58 S8        30.35S WCI  20
$$
MNZ012-019>021-037-011000-
   Northeast Minnesota

CITY           SKY/WX    TMP DP  RH WIND       PRES   REMARKS
DULUTH         CLEAR     24  13  62 SW6       30.40F WCI  17
ELY            CLEAR     12  10  92 CALM      30.40F
HIBBING        CLEAR     12   7  80 CALM      30.39F
EVELETH        CLEAR     12  10  92 CALM      30.41S
DULUTH HARBOR  CLEAR     28  19  69 CALM      30.46F
TWO HARBORS    CLEAR     21  16  79 W3        30.41F
SILVER BAY     CLEAR     18  14  86 CALM      30.42S
GRAND MARAIS     N/A     22  18  85 NW6       30.45S WCI  14
G MARAIS ARPRT CLEAR     10   5  79 W2        30.39S
$$
MNZ029>031-032-039>041-046>048-054>057-064-011000-
   West Central Minnesota

CITY           SKY/WX    TMP DP  RH WIND       PRES   REMARKS
FERGUS FALLS   PTCLDY    28  16  59 S15       30.36S WCI  17
WHEATON        PTCLDY    23  18  80 SE16      30.34F WCI  10
MORRIS         CLEAR     25  19  80 SE13      30.35F WCI  13
ALEXANDRIA     PTCLDY    27  17  66 S14       30.36F WCI  16
ELBOW LAKE     FAIR      27  19  70 SE14      30.34S WCI  16
WADENA         PTCLDY    25  18  74 S5        30.35S WCI  19
GLENWOOD       PTCLDY    25  18  74 S9        30.37F WCI  15
APPLETON       CLEAR     27  18  69 S8        30.37F WCI  18
BENSON         CLEAR     25  18  74 S10       30.38S WCI  15
ORTONVILLE     CLEAR     23  18  80 SE10      30.33F WCI  12
MADISON        PTCLDY    27  21  80 S10       30.37S WCI  17
WILLMAR        FAIR      27  18  69 S9        30.41F WCI  17
$$
MNZ033>034-036-042>043-049>051-058-059-011000-
   Central Minnesota

CITY           SKY/WX    TMP DP  RH WIND       PRES   REMARKS
ST CLOUD       CLEAR     23  16  74 SE6       30.43S WCI  16
SAUK CENTRE    FAIR      23  17  75 SE7       30.39F WCI  15
PAYNESVILLE    PTCLDY    25  17  69 SE7       30.41S WCI  18
AITKIN         CLEAR     19  14  79 CALM      30.39S
PINE RIVER     PTCLDY    19  18  93 SE3       30.40F
BRAINERD       CLEAR     22  15  75 S6        30.40F WCI  14
STAPLES        PTCLDY    25  18  74 S6        30.37F WCI  18
LONG PRAIRIE   FAIR      27  19  74 SE8       30.39S WCI  18
LITTLE FALLS   PTCLDY    23  18  80 CALM      30.41S
LITCHFIELD     CLEAR     28  19  69 CALM      30.42F
BUFFALO        CLEAR     23  16  76 CALM      30.45F
MAPLE LAKE     CLEAR     25  19  79 CALM      30.44S
$$
MNZ037-044-045-052-053-011000-
   East Central Minnesota

CITY           SKY/WX    TMP DP  RH WIND       PRES   REMARKS
PRINCETON      CLEAR     19  16  86 CALM      30.43S
MORA           CLEAR     18  14  86 CALM      30.45S
CAMBRIDGE      CLEAR     21  14  73 CALM      30.43S
RUSH CITY      CLEAR     19  17  91 S3        30.45F
MOOSE LAKE     CLEAR     18  14  86 CALM      30.42S
HINCKLEY       FAIR      18  18 100 CALM      30.44F
CLOQUET        CLEAR     25  16  68 CALM      30.41F
MCGREGOR       CLEAR     21  18  86 SE3       30.41F
$$
MNZ071>073-080-081-089-090-097-098-011000-
   Southwest Minnesota

CITY           SKY/WX    TMP DP  RH WIND       PRES   REMARKS
MONTEVIDEO     PTCLDY    27  18  69 S8        30.39F WCI  18
GRANITE FALLS  CLEAR     24  17  74 SE10      30.41S WCI  13
CANBY          PTCLDY    25  19  78 SE8       30.36F WCI  16
MARSHALL       PTCLDY    25  16  68 S10       30.37S WCI  15
REDWOOD FALLS  PTCLDY    20  13  74 S9        30.41F WCI   9
OLIVIA         PTCLDY    23  16  74 SE6       30.41S WCI  16
PIPESTONE      PTCLDY    25  18  74 S13       30.34F WCI  13
WINDOM         PTCLDY    23  16  74 SE8       30.40F WCI  14
WORTHINGTON    PTCLDY    25  16  68 S9        30.39F WCI  15
JACKSON        PTCLDY    23  16  74 S8        30.41F WCI  14
TRACY          PTCLDY    26  18  71 S12G18    30.38F WCI  16
SLAYTON        PTCLDY    22  17  80 SE12      30.38S WCI  10
$$
MNZ065>067-074>077-082>085-091>093-011000-
   South Central Minnesota

CITY           SKY/WX    TMP DP  RH WIND       PRES   REMARKS
MANKATO        CLEAR     21  12  68 SE8       30.44F WCI  12
NEW ULM        PTCLDY    19  16  86 S6        30.43F WCI  11
ST JAMES       PTCLDY    23  16  74 S6        30.44F WCI  16
FAIRMONT       PTCLDY    19  10  68 S8        30.43S WCI   9
GLENCOE        CLEAR     25  18  74 SE5       30.43F WCI  19
FARIBAULT      CLEAR     18  16  93 CALM      30.45F
OWATONNA       CLEAR     21  16  79 SE6       30.44F WCI  14
WASECA         CLEAR     19  12  73 SE6       30.46F WCI  11
ALBERT LEA     PTCLDY    25  19  80 SE3       30.45F
$$
MNZ078>079-086>088-094>096-011000-
   Southeast Minnesota

CITY           SKY/WX    TMP DP  RH WIND       PRES   REMARKS
ROCHESTER      CLEAR     19  15  84 S6        30.45F WCI  11
RED WING       CLEAR     19  18  93 CALM      30.46F
STANTON        CLEAR     17  13  86 CALM      30.45S
DODGE CENTER   PTCLDY    21  18  86 S5        30.44F WCI  15
WINONA         CLEAR     25  23  93 CALM      30.49F
AUSTIN         PTCLDY    19  16  86 CALM      30.45F
PRESTON        CLEAR     23  17  80 CALM      30.46S
$$
ABBREVIATIONS USED IN REMARKS
   TC - TEMPERATURES IN CELSIUS
  WCI - WIND CHILL INDEX
   HX - HEAT INDEX
  VSB - VISIBILITY
$$



USA.gov is the U.S. government's official web portal to all federal, state and local government web resources and services.